826  
NZUS99 KTBW 211616  
RWRTPA  
FLORIDA REGIONAL WEATHER ROUNDUP  
NATIONAL WEATHER SERVICE TAMPA BAY RUSKIN FL  
1200 PM EDT SAT MAY 21 2022  
 
NOTE: "FAIR" INDICATES FEW OR NO CLOUDS BELOW 12,000 FEET WITH NO  
SIGNIFICANT WEATHER AND/OR S TO VISIBILITY
.  
 
 
STATION/POSITION
 
 
 
FLZ042-048>051-055-056-060-061-211700-  
EXTRA STATIONS  
 
CITY SKY/WX TMP DP RH WIND PRES REMARKS
 
EVERGLADES CTY NOT AVBL  
CRYSTAL RIVER FAIR 82 73 74 SE6 30.19S  
SEBRING FAIR 87 76 68 S14G20 30.20R HX 97  
EGLIN AFB PTSUNNY 84 73 70 SE9 30.13R HX 91  
CANAVERAL PTSUNNY 85 76 75 S13 30.19R HX 94  
 

 
FLZ001>010-012>015-211700-  
PANHANDLE FLORIDA  
 
CITY SKY/WX TMP DP RH WIND PRES REMARKS
 
PENSACOLA MOSUNNY 86 77 74 SE16 30.11R HX 97  
PENSACOLA NAS PTSUNNY 86 74 67 SE15 30.10R HX 94  
VALPARAISO PTSUNNY 84 74 71 SE16 30.11S HX 91  
MARY ESTHER PTSUNNY 84 73 69 S15 30.11S HX 90  
PANAMA CITY PTSUNNY 81 76 84 SE13 30.13S  
TYNDALL AFB PTSUNNY 80 68 65 S17 30.13R  
APALACHICOLA PTSUNNY 77 71 82 SW9G20 30.15R  
 
STATION/POSITION
 
 
29.2N 88.2W  
28.8N 86.0W  
28.5N 84.5W  
 

 
FLZ011-016>039-211700-  
NORTH FLORIDA  
 
CITY SKY/WX TMP DP RH WIND PRES REMARKS
 
MARIANNA N/A N/A N/A N/A MISG 30.14F  
TALLAHASSEE CLOUDY 81 73 76 S9 30.17R  
CROSS CITY CLOUDY 82 74 76 S10 30.18F  
GAINESVILLE PTSUNNY 83 73 72 S10 30.22S  
MAYPORT NAS PTSUNNY 81 71 71 E9 30.22R  
JACKSONVILLE CLOUDY 81 70 69 S5 30.20R  
JAX NAS CLOUDY 85 72 65 S13 30.22R HX 91  
JAX CRAIG LGT RAIN 82 70 66 SE6 30.22R  
ST AUGUSTINE PTSUNNY 82 72 71 E6 30.23R  
 
STATION/POSITION
 
 
KEATON BEACH  
31.4N 80.9W  
ST AUGUSTINE  
 

 
FLZ040-043>046-052-053-057-058-063-211700-  
CENTRAL FLORIDA  
 
CITY SKY/WX TMP DP RH WIND PRES REMARKS
 
OCALA CLOUDY 83 74 74 SE8G17 30.21R  
LEESBURG PTSUNNY 84 76 76 SE8 30.21R HX 93  
SANFORD PTSUNNY 86 75 69 S10 30.20R HX 95  
ORLANDO EXEC PTSUNNY 88 75 65 S12 30.20R HX 97  
ORLANDO INTL CLOUDY 87 75 67 S12 30.20R HX 96  
KISSIMMEE PTSUNNY 85 76 74 S9 30.21R HX 94  
WINTER HAVEN CLOUDY 85 75 72 S7 30.21R HX 93  
LAKELAND INTL CLOUDY 84 79 84 MISG 30.20R HX 96  
BARTOW PTSUNNY 86 75 70 SE12 30.20R HX 95  
 

 
FLZ041-047-054-059-064-211700-  
EAST CENTRAL FLORIDA  
 
CITY SKY/WX TMP DP RH WIND PRES REMARKS
 
DAYTONA BEACH CLOUDY 85 74 69 SE8 30.21R HX 92  
JFK SPACE CTR PTSUNNY 85 75 71 S8 30.19R HX 93  
TITUSVILLE MOSUNNY 88 75 66 S14 30.21R HX 97  
PATRICK AFB PTSUNNY 84 66 55 SE10 30.19R  
MELBOURNE PTSUNNY 85 75 72 SE15 30.19R HX 93  
VERO BEACH PTSUNNY 86 77 74 SE18G24 30.21R HX 97  
FT PIERCE CLOUDY 86 76 71 SE16 30.19R HX 96  
STUART PTSUNNY 86 75 70 SE14G20 30.20R HAZE HX 95  
 
STATION/POSITION
 
 
28.9N 78.5W  
 

 
FLZ042-048>051-055-056-060-061-211700-  
WEST CENTRAL FLORIDA  
 
CITY SKY/WX TMP DP RH WIND PRES REMARKS
 
BROOKSVILLE CLOUDY 84 76 76 S14 30.19S HX 93  
TAMPA CLOUDY 85 74 69 S6 30.19S HX 92  
MACDILL AFB CLOUDY 83 75 75 SE5 30.15S HX 90  
ST PETERSBURG CLOUDY 84 78 82 VRB6 30.18F HX 95  
ST PET-WHITTED CLOUDY 82 75 79 SE5 30.16F  
SARASOTA CLOUDY 84 75 74 VRB3 30.15F HX 92  
 
STATION/POSITION
 
 
CEDAR KEY  
28.5N 84.5W  
VENICE  
 

 
FLZ062-065-066-069-070-075>078-211700-  
SOUTHWEST FLORIDA AND KEYS  
 
CITY SKY/WX TMP DP RH WIND PRES REMARKS
 
PUNTA GORDA PTSUNNY 87 77 72 E5 30.18S HX 99  
FT MYERS PTSUNNY 88 74 63 S9 30.15S HX 96  
SOUTHWEST INTL PTSUNNY 87 76 69 S10 30.16R HX 97  
NAPLES PTSUNNY 90 75 61 SE14 30.15R HX 100  
MARATHON MOSUNNY 88 79 74 SE12G22 30.13R HX 103  
KEY WEST NAS CLOUDY 91 78 65 SE16 30.13R HX 106  
KEY WEST INTL PTSUNNY 85 79 82 SE13 30.13R HX 98  
 
STATION/POSITION
 
 
VENICE  
SAND KEY  
SOMBRERO KEY  
LONG KEY  
 

 
FLZ067-068-071>074-211700-  
SOUTHEAST FLORIDA  
 
CITY SKY/WX TMP DP RH WIND PRES REMARKS
 
W PALM BEACH PTSUNNY 86 76 71 SE14 30.19R HX 96  
POMPANO BEACH PTSUNNY 85 77 77 SE14 30.18R HX 95  
FT LAUDER-EXEC MOSUNNY 87 77 72 SE15G22 30.17R HX 99  
FT LAUDERDALE PTSUNNY 86 77 74 SE17 30.16R HX 97  
PEMBROKE PINES PTSUNNY 86 75 69 SE17 30.18R HX 95  
OPA LOCKA PTSUNNY 86 75 69 SE14 30.17R HX 95  
MIAMI PTSUNNY 86 77 74 SE14 30.17R HX 97  
WEST KENDALL PTSUNNY 87 76 69 SE14 30.16R HX 97  
HOMESTEAD PTSUNNY 86 77 74 SE10 30.15R HX 97  
 
STATION/POSITION
 
 
LAKE WORTH  
FOWEY ROCKS  
SETTLEMENT POINT  
 

 
 
 
CLICK HERE TO GO TO PREVIOUS BULLETINS.

The Nexlab FL Page Main Text Page